Regional Weather Roundup
Issued by NWS

Home | Current Version | Previous Version | Text Only | Print | Product List | Glossary Off
Versions: 1 2 3 4 5 6 7 8 9 10 11 12 13 14 15 16 17 18 19 20 21 22 23 24 25 26 27 28 29 30 31 32 33 34 35 36 37 38 39 40 41 42 43 44 45 46 47 48 49 50

000
ASUS43 KDTX 131101
RWRMI
MICHIGAN HOURLY REGIONAL WEATHER ROUNDUP
NATIONAL WEATHER SERVICE DETROIT/PONTIAC MI
600 AM EST SAT FEB 13 2016

NOTE: "FAIR" INDICATES FEW OR NO CLOUDS BELOW 12,000 FEET WITH NO
SIGNIFICANT WEATHER AND/OR OBSTRUCTION TO VISIBILITY.

MIZ047>049-052>055-059>063-066>070-074>076-081>083-131200-
SOUTHEAST LOWER MICHIGAN

CITY           SKY/WX    TMP DP  RH WIND       PRES   REMARKS
ADRIAN         CLEAR      2  -7  66 NW6       30.39R WCI  -9
ALMA           CLOUDY     5   1  82 W7        30.36R WCI  -7
ANN ARBOR      CLEAR     -1  -8  72 W6        30.37R WCI -13
BAD AXE        PTCLDY    -1 -10  65 NW12      30.34R WCI -18
CARO           CLOUDY    -8 -13  77 NW3       30.35R
DETROIT CITY   CLEAR      4  -7  60 NW8       30.37R WCI  -9
DETROIT        PTCLDY     3  -8  60 W9        30.39R WCI -12
FLINT          CLOUDY     1  -7  68 NW6       30.35S WCI -10
GROSSE ILE     PTCLDY     5  -6  61 NW7       30.38R WCI  -7
HILLSDALE      CLEAR      1  -9  64 W7        30.35R WCI -12
HOWELL         MOCLDY     2  -4  75 W6        30.34R WCI  -9

CITY           SKY/WX    TMP DP  RH WIND       PRES   REMARKS
JACKSON        CLEAR      2  -7  66 W5        30.36R WCI  -8
LAMBERTVILLE   CLEAR      2  -8  63 W5        30.41R WCI  -7
LANSING        CLEAR      4  -3  73 W9        30.37R WCI -10
LAPEER         FAIR       0  -4  83 NW3       30.35R
MASON          CLEAR      2  -3  77 W8        30.36R WCI -11
MONROE         CLEAR      4  -7  61 NW8       30.39R WCI  -9
MT. CLEMENS    CLEAR      3  -4  71 NW7       30.35R WCI -10
PONTIAC        PTCLDY    -1  -8  72 W6        30.32R WCI -13
PORT HOPE        N/A      5  -3  69 NW20G29   30.30R WCI -15
PORT HURON     PTCLDY     1  -8  66 NW7       30.35R WCI -11
TRI CITIES     CLOUDY     1  -7  68 NE5       30.38R WCI  -9
MIDLAND        CLOUDY     0  -7  70 CALM      30.38R
TROY           CLEAR      4  -6  64 W5        30.38R WCI  -5
SAGINAW HB     PTCLDY     1  -6  71 NW5       30.38R WCI  -8
$$
MIZ043>046-050>051-056>058-064>065-071>073-077>080-131200-
SOUTHWEST LOWER MICHIGAN

CITY           SKY/WX    TMP DP  RH WIND       PRES   REMARKS
BATTLE CREEK   CLEAR     -1  -8  72 W7        30.39R WCI -14
BENTON HARBOR  LGT SNOW  13   4  67 NW10G23   30.45R WCI   0
BIG RAPIDS     LGT SNOW   2  -1  87 CALM      30.33R
COLDWATER      MOCLDY    -3  -8  76 W7        30.39R WCI -16
FREMONT        LGT SNOW   9   4  80 NW8G16    30.38R WCI  -4
HOLLAND        LGT SNOW  10   5  80 CALM      30.42R VSB 3/4
GRAND RAPIDS   MOCLDY     9   0  67 NW13      30.39R WCI  -7
IONIA          FAIR       4  -1  78 W8        30.37R WCI  -9
KALAMAZOO      LGT SNOW   3  -2  79 W7        30.41R WCI  -9
LUDINGTON      LGT SNOW  10   1  69 NW12G18   30.40S WCI  -5
MARSHALL       CLEAR     -1  -7  77 W5        30.38R WCI -11
MOUNT PLEASANT LGT SNOW   5  -2  73 N3        30.35R
MUSKEGON       LGT SNOW  11   5  77 N10       30.42R VSB 1   WCI  -3
SOUTH HAVEN    LGT SNOW  13   8  79 NW14G25   30.43R WCI  -2
$$
MIZ016>042-131200-
NORTHERN LOWER MICHIGAN

CITY           SKY/WX    TMP DP  RH WIND       PRES   REMARKS
ALPENA         MOCLDY    -9 -14  78 NW5       30.36S WCI -20
BEAVER ISLAND  CLOUDY    -3  -8  81 E6        30.37R FOG     WCI -16
BELLAIRE       CLOUDY    -6 -12  76 CALM      30.40R
CADILLAC       LGT SNOW   0  -4  81 E8        30.27R WCI -14
CHARLEVOIX     MOCLDY    -8 -15  72 SE9       30.39R WCI -25
FRANKFORT      CLOUDY    10   0  63 N13G24    30.37S WCI  -5
GAYLORD        CLEAR    -18 -25  70 CALM      30.28R
GRAYLING       PTCLDY   -19 -26  69 CALM      30.32R
HARBOR SPRINGS CLOUDY   -11 -17  75 NE6       30.36R WCI -25
HOUGHTON LAKE  MOCLDY    -9 -13  83 NE3       30.31R
MANISTEE       CLOUDY    10   0  61 NW18G28   30.37S VSB 1   WCI  -8
OSCODA         CLEAR    -10 -16  75 W5        30.36R WCI -22
PELLSTON       CLEAR    -19 -24  77 CALM      30.38R
ROGERS CITY    LGT SNOW  -5 -13  69 N8        30.38R WCI -21
TRAVERSE CITY  LGT SNOW   2  -3  80 SE5       30.36R WCI  -8
$$
MIZ007>008-015-131200-
EASTERN UPPER MICHIGAN

CITY           SKY/WX    TMP DP  RH WIND       PRES   REMARKS
KINROSS        CLOUDY   -18 -24  76 CALM      30.37R
MACKINAC ISLAN CLOUDY   -11 -19  67 NE3       30.37S
NEWBERRY       LGT SNOW -12 -15  85 SE5       30.35R WCI -24
S. S. MARIE    PTCLDY   -15 -26  57 NW3       30.37R
$$
MIZ004>006-011>014-085-131200-
CENTRAL UPPER MICHIGAN

CITY           SKY/WX    TMP DP  RH WIND       PRES   REMARKS
MANISTIQUE     LGT SNOW   4   0  82 NE7       30.35R WCI  -8
ESCANABA       CLEAR      0  -9  65 NW14      30.41S WCI -19
MENOMINEE      CLEAR     -4  -9  77 W6        30.47R WCI -16
SAWYER-GWINN   CLOUDY    -2  -6  81 NW7       30.34S WCI -15
$$
MIZ001>003-009>011-084-131200-
WESTERN UPPER MICHIGAN

CITY           SKY/WX    TMP DP  RH WIND       PRES   REMARKS
IRON MOUNTAIN  CLEAR    -12 -17  78 N3        30.39R
HOUGHTON       FLURRIES   0  -7  72 NW12      30.40R WCI -17
COPPER HARBOR    N/A      5   1  83 NE22G35   30.41R WCI -16
IRONWOOD       CLOUDY     0  -6  78 NW13G21   30.44R WCI -18
$$

ABBREVIATIONS USED IN REMARKS
   TC - TEMPERATURE IN CELSIUS
  WCI - WIND CHILL INDEX
   HX - HEAT INDEX
  VSB - VISIBILITY




USA.gov is the U.S. government's official web portal to all federal, state and local government web resources and services.